TIME,DELAY(SENSOR),PRES,OXYGEN,RAWTEMP,T(OPTODE),TCPHASE,FLUOR,BETA(BETA700),BETA(BETA412),BETA(BETA440),CDOM,C(CSC),ED(ED412.40),ED(ED444.00),ED(ED489.70),ED(ED554.30),LU(LU411.80),LU(LU443.40),LU(LU489.60),LU(LU554.10),COMP,TILTX,TILTY,CHECK
1333425806,5807,876.6699829101562000,40.9258499145507800,659.4910278320312000,4.6447300910949710,54.8498992919921900,53,101,90,80,83,15257,2147760850,2147422866,2148004580,2147873590,2147640146,2147069202,2148254619,2147201462,280,4,14,11901
1333429402,5810,969.2700195312500000,44.3154182434082000,668.3129272460938000,4.3539137840271000,54.4537811279296900,53,100,89,80,83,15258,2147758482,2147423405,2148002761,2147872201,2147640859,2147067648,2148261430,2147203538,485,4,14,7986
1333433002,5809,990.2600097656250000,45.0028114318847660,670.1707153320312000,4.2925610542297360,54.3772201538085940,53,101,87,80,83,15258,2147758720,2147422153,2148002742,2147873709,2147643748,2147062765,2148259446,2147202368,1006,4,14,3733
1333436602,5809,1002.3599853515625000,45.2129402160644500,670.8928833007812000,4.2686958312988280,54.3562316894531250,53,101,90,79,85,15253,2147755712,2147423890,2148006272,2147876480,2147641088,2147062381,2148256054,2147203510,68,5,13,33552
1333440202,5809,1008.4099731445312000,44.9283485412597660,670.9498291015625000,4.2668190002441410,54.3996810913085940,53,100,89,80,84,15250,2147758134,2147422171,2148002944,2147875821,2147644123,2147070016,2148265316,2147200786,3582,4,14,63429
1333443802,5807,1005.4699707031250000,44.6832618713378900,671.0504760742188000,4.2634887695312500,54.4365005493164060,53,99,88,81,84,15250,2147760402,2147420352,2148004662,2147874386,2147642267,2147063716,2148259977,2147200438,596,4,13,16448
1333447402,5806,1013.2299804687500000,44.9271087646484400,671.5515747070312000,4.2469291687011720,54.4080696105957000,53,99,90,80,84,15247,2147758244,2147420644,2148004653,2147875291,2147643593,2147063488,2148257353,2147201316,318,4,13,57756
1333451002,5811,997.9899902343750000,45.6563987731933600,673.4348144531250000,4.1846680641174320,54.3255195617675800,52,105,87,79,84,15251,2147761124,2147420169,2148004397,2147873910,2147643099,2147067547,2148260242,2147198363,3262,4,13,24529
1333454602,5809,1000.3800048828125000,45.9651298522949200,675.0438842773438000,4.1314330101013180,54.2969818115234400,53,99,91,80,84,15246,2147757769,2147424256,2148004141,2147874166,2147644425,2147065298,2148266934,2147200539,221,4,13,30546
1333458202,5810,1005.4199829101562000,46.0572891235351560,674.7628784179688000,4.1407299041748050,54.2849311828613300,53,99,89,79,84,15250,2147760182,2147423771,2148008283,2147871606,2147642678,2147062217,2148263286,2147198464,3585,4,14,38875
1333461802,5811,1010.0599975585938000,45.8715591430664060,674.2918090820312000,4.1563191413879395,54.3052101135253900,53,101,90,79,84,15250,2147758985,2147422308,2148006061,2147872064,2147644160,2147067200,2148258898,2147199140,338,4,13,23747
1333465402,5810,1020.3900146484375000,45.9481697082519500,673.3054809570312000,4.1889438629150390,54.2795600891113300,52,99,94,78,85,15246,2147760045,2147425261,2148007186,2147876772,2147645394,2147066678,2148260800,2147202560,438,4,13,26799
1333469002,5810,1021.0300292968750000,44.8417282104492200,671.9171142578125000,4.2348499298095700,54.4251594543457000,51,99,83,78,84,15247,2147758902,2147423926,2148007853,2147871424,2147642624,2147062646,2148262299,2147201764,87,5,13,60379
1333472602,5808,1012.9799804687500000,44.6477088928222660,671.9995117187500000,4.2321238517761230,54.4507102966308600,53,99,90,79,84,15248,2147757485,2147424274,2148004635,2147872612,2147642029,2147067392,2148260452,2147203236,57,4,13,38212
1333476202,5809,1015.6199951171875000,45.2261810302734400,672.7075805664062000,4.2087140083312990,54.3791999816894500,53,104,87,78,85,15242,2147758198,2147424896,2148005723,2147876544,2147642742,2147065042,2148261650,2147199350,790,4,13,47054
1333479802,5810,1007.4299926757812000,44.6499710083007800,672.7161865234375000,4.2084288597106930,54.4593811035156250,53,100,87,79,84,15232,2147758720,2147422811,2148008484,2147873782,2147644141,2147064768,2148260205,2147201252,597,4,13,33290
1333483402,5808,1017.2800292968750000,45.4936408996582000,673.8107910156250000,4.1722297668457030,54.3511390686035160,53,98,89,80,84,15239,2147760027,2147423241,2148007296,2147874651,2147641325,2147059382,2148263433,2147200896,25,4,13,32471
1333487002,5810,1018.0900268554688000,45.4841194152832000,674.0042724609375000,4.1658291816711430,54.3589782714843750,53,101,90,81,84,15234,2147759314,2147424905,2148004745,2147874276,2147646244,2147065865,2148264173,2147203584,3582,4,14,29594
1333490602,5807,1012.9099731445312000,45.4522781372070300,674.3153076171875000,4.1555399894714355,54.3655204772949200,52,99,90,80,84,15233,2147757165,2147422509,2148008292,2147872649,2147640164,2147062061,2148264566,2147198939,303,4,13,42241
1333494202,5806,1008.7000122070312000,45.4781494140625000,675.2446289062500000,4.1247920989990230,54.3723106384277340,52,102,89,79,84,15234,2147758454,2147423853,2148002870,2147874176,2147640859,2147063570,2148266285,2147201819,766,4,13,64884
1333497802,5811,1025.1600341796875000,45.6850090026855500,673.8076782226562000,4.1723351478576660,54.3257217407226560,52,98,90,80,84,15230,2147760978,2147424512,2148002596,2147873901,2147642816,2147064210,2148264457,2147201782,3366,4,13,54245
1333501402,5810,1017.7899780273438000,45.6214408874511700,673.4172973632812000,4.1852440834045410,54.3240585327148440,52,105,88,84,84,15231,2147758006,2147422701,2148006674,2147875666,2147643026,2147065600,2148263826,2147202395,252,4,13,50603
1333505002,5808,1021.3200073242188000,45.6067085266113300,673.9121704101562000,4.1688752174377440,54.3392295837402340,52,106,89,79,84,15222,2147757257,2147424256,2148005403,2147872585,2147643730,2147066523,2148261924,2147203227,3337,4,13,19768
1333508602,5811,1019.5900268554688000,45.5182609558105500,673.9251708984375000,4.1684470176696780,54.3529090881347660,53,101,91,80,83,15228,2147760429,2147428480,2148004096,2147875108,2147645604,2147067995,2148261778,2147202240,97,5,13,50531
1333512202,5808,1020.2100219726562000,45.3296203613281250,673.9199829101562000,4.1686191558837890,54.3775100708007800,52,101,89,79,84,15226,2147759515,2147422756,2148005842,2147876214,2147643611,2147064530,2148264850,2147202916,237,4,13,1150
1333515802,5806,1031.5500488281250000,45.6174201965332000,674.4578857421875000,4.1508221626281740,54.3384590148925800,53,99,89,80,83,15229,2147759652,2147420032,2148004644,2147874121,2147641910,2147067986,2148261979,2147202505,3414,4,13,30619
1333519402,5811,1035.6600341796875000,45.7042999267578100,673.6907958984375000,4.1761989593505860,54.3207015991210940,52,98,92,79,84,15226,2147760155,2147417828,2148003977,2147874166,2147641572,2147069193,2148264722,2147201005,460,4,13,700
1333523002,5812,1020.2899780273438000,44.8759307861328100,673.0764160156250000,4.1965198516845700,54.4337081909179700,52,101,91,80,84,15223,2147757915,2147421686,2148004251,2147874642,2147643017,2147063725,2148264054,2147202889,3529,4,13,44044
1333526602,5808,1027.1800537109375000,44.2435302734375000,671.5236206054688000,4.2478561401367190,54.5021705627441400,53,100,88,80,83,15221,2147762130,2147421302,2148005558,2147877120,2147640941,2147066258,2148267044,2147203456,3205,4,13,40216
1333530202,5807,1024.5500488281250000,44.7770195007324200,673.3046875000000000,4.1889691352844240,54.4485511779785160,53,99,88,80,84,15222,2147757238,2147420114,2148006601,2147875355,2147642166,2147067291,2148262134,2147204525,3578,4,13,24622
1333533802,5809,1024.4499511718750000,45.2242698669433600,674.5233154296875000,4.1486630439758300,54.3955993652343750,53,102,91,80,84,15219,2147760877,2147419968,2148002450,2147875008,2147643977,2147071652,2148261065,2147201837,398,4,13,43415
1333537402,5811,1016.7199707031250000,45.3020401000976560,674.6956787109375000,4.1429538726806640,54.3897590637207000,52,99,88,81,84,15220,2147758125,2147423744,2148006098,2147872018,2147642496,2147063734,2148265206,2147198336,3505,4,13,23615
1333541002,5808,1013.9000244140625000,46.3127899169921900,676.4047241210938000,4.0863909721374510,54.2675895690918000,53,99,88,80,83,15223,2147758326,2147419529,2148006016,2147874432,2147644653,2147067565,2148268635,2147202907,3590,4,13,28735
1333544602,5809,1018.4199829101562000,46.6107711791992200,675.4229736328125000,4.1188869476318360,54.2080383300781250,53,100,89,80,84,15214,2147759643,2147420480,2148005760,2147874962,2147644955,2147068150,2148265097,2147202761,106,4,13,43660
1333548202,5805,1025.9399414062500000,44.9403495788574200,672.8934936523438000,4.2025680541992190,54.4191703796386700,53,101,89,79,82,15211,2147760365,2147421339,2148004507,2147876141,2147641462,2147066230,2148264594,2147202230,448,4,13,65215
1333551802,5810,1020.5700073242188000,45.2318687438964840,674.3621215820312000,4.1539940834045410,54.3976707458496100,53,99,89,79,83,15203,2147757869,2147421869,2148004068,2147876242,2147642505,2147062582,2148260205,2147200484,322,4,13,41355
1333555402,5809,1025.0400390625000000,45.2035102844238300,673.8037109375000000,4.1724638938903810,54.3947410583496100,52,101,91,80,83,15206,2147757083,2147425682,2148008365,2147872576,2147645449,2147069659,2148264265,2147201865,125,4,13,51620
1333559002,5811,1026.0600585937500000,46.0010185241699200,675.1937866210938000,4.1264739036560060,54.2987403869628900,53,98,88,81,84,15207,2147761435,2147419894,2148004068,2147875538,2147645412,2147065846,2148267236,2147202441,531,4,13,62033
1333562602,5806,1022.7100219726562000,45.4874916076660160,675.1459960937500000,4.1280560493469240,54.3664817810058600,53,99,89,80,83,15204,2147760566,2147422619,2148004489,2147873362,2147644050,2147067638,2148262409,2147200036,3442,4,14,22092
1333566202,5809,1024.9200439453125000,45.7157707214355500,674.8754882812500000,4.1370048522949220,54.3325691223144500,54,99,92,79,84,15200,2147758875,2147423360,2148009115,2147876379,2147642166,2147063725,2148267081,2147202907,107,4,13,14917
1333569356,5805,1022.7999877929688000,45.4507408142089840,674.7766723632812000,4.1402759552001950,54.3727607727050800,53,100,89,80,84,15241,2147760576,2147423433,2148006912,2147876406,2147638765,2147063350,2148267565,2147203035,215,4,13,9812
